| time (UTC) | temp F | wind direction | speed knots | gust knots | rain 1hr in | rain 24hr in | rain mn in | humidity % | barometer mb |
| 20260508125459 | 50 | 309 | 6.1 | 8.7 | 0.00 | 0.00 | 0.00 | 59 | 1017.2 |
| 20260508124527 | 49 | 289 | 5.2 | 7.0 | 0.00 | 0.00 | 0.00 | 59 | 1017.2 |
| 20260508123516 | 49 | 308 | 4.3 | 8.7 | 0.00 | 0.00 | 0.00 | 59 | 1017.1 |
| 20260508122502 | 49 | 296 | 3.5 | 6.1 | 0.00 | 0.00 | 0.00 | 64 | 1016.9 |
| 20260508121505 | 48 | 308 | 3.5 | 5.2 | 0.00 | 0.00 | 0.00 | 66 | 1017.7 |
| 20260508120514 | 48 | 308 | 3.5 | 5.2 | 0.00 | 0.00 | 0.00 | 69 | 1017.4 |
| 20260508115503 | 47 | 307 | 2.6 | 7.0 | 0.00 | 0.00 | 0.00 | 68 | 1017.3 |
| 20260508114510 | 46 | 355 | 0.9 | 6.1 | 0.00 | 0.00 | 0.00 | 69 | 1017.2 |
| 20260508113515 | 45 | 311 | 0.9 | 3.5 | 0.00 | 0.00 | 0.00 | 70 | 1017.1 |
| 20260508112506 | 44 | 310 | 1.7 | 4.3 | 0.00 | 0.00 | 0.00 | 73 | 1016.9 |
| 20260508111511 | 43 | 311 | 0.9 | 3.5 | 0.00 | 0.00 | 0.00 | 75 | 1016.8 |
| 20260508110458 | 42 | 309 | 2.6 | 5.2 | 0.00 | 0.00 | 0.00 | 75 | 1016.5 |
| 20260508105511 | 42 | 312 | 1.7 | 5.2 | 0.00 | 0.00 | 0.00 | 75 | 1016.4 |
| 20260508104458 | 42 | 304 | 5.2 | 7.0 | 0.00 | 0.00 | 0.00 | 74 | 1016.2 |
| 20260508103510 | 42 | 299 | 2.6 | 7.8 | 0.00 | 0.00 | 0.00 | 74 | 1016.2 |
| 20260508102516 | 42 | 309 | 5.2 | 9.6 | 0.00 | 0.00 | 0.00 | 74 | 1015.9 |
| 20260508101500 | 42 | 300 | 6.1 | 12.2 | 0.00 | 0.01 | 0.00 | 75 | 1015.7 |
| 20260508100512 | 42 | 287 | 3.5 | 7.8 | 0.00 | 0.01 | 0.00 | 76 | 1015.5 |
| 20260508095458 | 42 | 298 | 4.3 | 13.0 | 0.00 | 0.01 | 0.00 | 76 | 1015.3 |
| 20260508094530 | 42 | 309 | 3.5 | 10.4 | 0.00 | 0.01 | 0.00 | 76 | 1015.2 |
| 20260508093456 | 42 | 297 | 3.5 | 9.6 | 0.00 | 0.01 | 0.00 | 77 | 1015.2 |
| 20260508092525 | 42 | 321 | 2.6 | 9.6 | 0.00 | 0.01 | 0.00 | 77 | 1015.3 |
| 20260508091510 | 43 | 28 | 0.9 | 9.6 | 0.00 | 0.01 | 0.00 | 77 | 1015.0 |
| 20260508090537 | 43 | 347 | 3.5 | 8.7 | 0.00 | 0.01 | 0.00 | 75 | 1015.1 |
| 20260508085504 | 44 | 300 | 3.5 | 8.7 | 0.00 | 0.01 | 0.00 | 74 | 1015.1 |
| 20260508084513 | 44 | 303 | 4.3 | 11.3 | 0.00 | 0.01 | 0.00 | 74 | 1015.1 |
| 20260508083536 | 44 | 14 | 5.2 | 10.4 | 0.00 | 0.01 | 0.00 | 73 | 1014.7 |
| 20260508082501 | 45 | 299 | 2.6 | 13.0 | 0.00 | 0.01 | 0.00 | 73 | 1014.5 |
| 20260508081509 | 45 | 331 | 6.1 | 10.4 | 0.00 | 0.01 | 0.00 | 72 | 1014.3 |
| 20260508080533 | 45 | 307 | 5.2 | 10.4 | 0.00 | 0.01 | 0.00 | 72 | 1014.2 |
| 20260508075517 | 45 | 344 | 4.3 | 10.4 | 0.00 | 0.01 | 0.00 | 71 | 1014.1 |
| 20260508074504 | 45 | 304 | 7.0 | 14.8 | 0.00 | 0.01 | 0.00 | 72 | 1013.9 |
| 20260508073512 | 46 | 355 | 7.0 | 14.8 | 0.00 | 0.01 | 0.00 | 73 | 1013.7 |
| 20260508072500 | 46 | 293 | 3.5 | 20.0 | 0.00 | 0.01 | 0.00 | 73 | 1013.7 |
| 20260508071503 | 46 | 344 | 6.1 | 15.6 | 0.00 | 0.02 | 0.00 | 75 | 1013.7 |
| 20260508070514 | 46 | 287 | 5.2 | 12.2 | 0.00 | 0.02 | 0.00 | 76 | 1013.7 |
| 20260508065502 | 46 | 284 | 7.8 | 13.9 | 0.00 | 0.02 | 0.00 | 77 | 1014.0 |
| 20260508064532 | 46 | 278 | 6.1 | 13.9 | 0.00 | 0.02 | 0.00 | 78 | 1014.0 |
| 20260508063515 | 46 | 355 | 4.3 | 9.6 | 0.00 | 0.02 | 0.00 | 79 | 1014.1 |
| 20260508062506 | 46 | 316 | 3.5 | 13.0 | 0.00 | 0.02 | 0.00 | 79 | 1014.1 |
| 20260508061515 | 46 | 280 | 3.5 | 8.7 | 0.00 | 0.02 | 0.00 | 78 | 1014.1 |
| 20260508060503 | 47 | 302 | 7.8 | 12.2 | 0.00 | 0.02 | 0.00 | 79 | 1014.2 |
| 20260508055510 | 47 | 284 | 7.0 | 9.6 | 0.00 | 0.02 | 0.00 | 79 | 1014.3 |
| 20260508054515 | 47 | 295 | 7.0 | 10.4 | 0.00 | 0.02 | 0.00 | 78 | 1014.4 |
| 20260508053503 | 47 | 304 | 5.2 | 11.3 | 0.00 | 0.02 | 0.00 | 79 | 1014.4 |
| 20260508052509 | 47 | 297 | 10.4 | 15.6 | 0.00 | 0.02 | 0.00 | 79 | 1014.3 |
| 20260508051459 | 47 | 306 | 7.8 | 11.3 | 0.00 | 0.03 | 0.00 | 80 | 1014.0 |
| 20260508050510 | 47 | 283 | 4.3 | 14.8 | 0.00 | 0.03 | 0.00 | 80 | 1014.7 |
| 20260508045514 | 47 | 319 | 7.0 | 13.0 | 0.00 | 0.03 | 0.00 | 81 | 1014.5 |
| 20260508044459 | 47 | 300 | 6.1 | 13.9 | 0.00 | 0.03 | 0.00 | 82 | 1014.4 |
| 20260508043507 | 47 | 295 | 9.6 | 17.4 | 0.00 | 0.03 | 0.00 | 82 | 1014.2 |
| 20260508042507 | 47 | 329 | 8.7 | 19.1 | 0.00 | 0.03 | 0.00 | 81 | 1014.0 |
| 20260508041504 | 47 | 296 | 5.2 | 16.5 | 0.00 | 0.04 | 0.00 | 81 | 1013.8 |
| 20260508040510 | 48 | 304 | 5.2 | 16.5 | 0.00 | 0.04 | 0.00 | 82 | 1013.8 |
| 20260508035514 | 48 | 298 | 7.8 | 20.0 | 0.00 | 0.04 | 0.04 | 81 | 1014.1 |
| 20260508034505 | 48 | 307 | 9.6 | 13.0 | 0.00 | 0.04 | 0.04 | 81 | 1013.9 |
| 20260508033513 | 48 | 302 | 5.2 | 15.6 | 0.00 | 0.04 | 0.04 | 80 | 1013.9 |
| 20260508032459 | 49 | 312 | 8.7 | 13.9 | 0.00 | 0.04 | 0.04 | 80 | 1013.8 |
| 20260508031503 | 49 | 316 | 7.0 | 15.6 | 0.00 | 0.06 | 0.04 | 79 | 1013.6 |
| 20260508030509 | 49 | 304 | 10.4 | 14.8 | 0.00 | 0.06 | 0.04 | 78 | 1013.5 |
| 20260508025501 | 49 | 269 | 9.6 | 14.8 | 0.00 | 0.06 | 0.04 | 78 | 1013.5 |
| 20260508024506 | 49 | 309 | 9.6 | 16.5 | 0.00 | 0.06 | 0.04 | 78 | 1013.5 |
| 20260508023515 | 50 | 289 | 7.0 | 19.1 | 0.00 | 0.06 | 0.04 | 77 | 1013.3 |
| 20260508022506 | 50 | 319 | 10.4 | 17.4 | 0.00 | 0.06 | 0.04 | 77 | 1013.0 |
| 20260508021513 | 50 | 288 | 7.8 | 14.8 | 0.00 | 0.06 | 0.04 | 77 | 1012.9 |
| 20260508020517 | 50 | 316 | 7.8 | 19.1 | 0.00 | 0.06 | 0.04 | 77 | 1012.8 |
| 20260508015503 | 50 | 302 | 7.8 | 16.5 | 0.00 | 0.06 | 0.04 | 77 | 1012.7 |
| 20260508014528 | 50 | 302 | 8.7 | 20.9 | 0.00 | 0.06 | 0.04 | 77 | 1012.6 |
| 20260508013537 | 50 | 300 | 7.8 | 17.4 | 0.00 | 0.06 | 0.04 | 77 | 1012.4 |
| 20260508012503 | 50 | 286 | 8.7 | 18.2 | 0.00 | 0.06 | 0.04 | 77 | 1012.2 |
| 20260508011527 | 50 | 313 | 11.3 | 16.5 | 0.00 | 0.06 | 0.04 | 77 | 1012.0 |
| 20260508010516 | 50 | 305 | 8.7 | 16.5 | 0.00 | 0.06 | 0.04 | 77 | 1011.7 |
| 20260508005503 | 50 | 279 | 7.8 | 13.9 | 0.00 | 0.06 | 0.04 | 76 | 1011.7 |
| 20260508004509 | 50 | 315 | 8.7 | 15.6 | 0.00 | 0.06 | 0.04 | 75 | 1011.7 |
| 20260508003514 | 51 | 288 | 9.6 | 16.5 | 0.00 | 0.06 | 0.04 | 74 | 1011.7 |
| 20260508002502 | 51 | 297 | 12.2 | 17.4 | 0.00 | 0.06 | 0.04 | 74 | 1011.5 |
| 20260508001509 | 51 | 296 | 9.6 | 16.5 | 0.00 | 0.06 | 0.04 | 74 | 1011.6 |
| 20260508000515 | 52 | 309 | 8.7 | 16.5 | 0.00 | 0.06 | 0.04 | 73 | 1011.6 |
| 20260507235504 | 52 | 291 | 9.6 | 16.5 | 0.00 | 0.06 | 0.04 | 72 | 1011.6 |
| 20260507234515 | 52 | 292 | 10.4 | 15.6 | 0.00 | 0.06 | 0.04 | 72 | 1011.7 |
| 20260507233502 | 53 | 327 | 11.3 | 20.9 | 0.00 | 0.06 | 0.04 | 72 | 1011.5 |
| 20260507232506 | 53 | 284 | 12.2 | 22.6 | 0.00 | 0.06 | 0.04 | 72 | 1011.2 |
| 20260507231513 | 53 | 323 | 11.3 | 21.7 | 0.00 | 0.06 | 0.04 | 72 | 1011.2 |
| 20260507230504 | 54 | 278 | 10.4 | 17.4 | 0.00 | 0.06 | 0.04 | 72 | 1011.2 |
| 20260507225507 | 54 | 304 | 6.1 | 20.0 | 0.00 | 0.06 | 0.04 | 72 | 1011.1 |
| 20260507224533 | 54 | 296 | 11.3 | 20.0 | 0.00 | 0.06 | 0.04 | 73 | 1011.1 |
| 20260507223536 | 55 | 300 | 15.6 | 20.0 | 0.00 | 0.06 | 0.04 | 74 | 1010.9 |
| 20260507222501 | 55 | 271 | 7.0 | 15.6 | 0.00 | 0.06 | 0.04 | 75 | 1010.7 |
| 20260507221532 | 55 | 278 | 10.4 | 18.2 | 0.00 | 0.06 | 0.04 | 75 | 1010.6 |
| 20260507220515 | 55 | 275 | 12.2 | 20.9 | 0.00 | 0.06 | 0.04 | 75 | 1010.4 |
| 20260507215502 | 54 | 307 | 11.3 | 19.1 | 0.00 | 0.06 | 0.04 | 77 | 1010.3 |
| 20260507214510 | 53 | 312 | 8.7 | 17.4 | 0.00 | 0.06 | 0.04 | 80 | 1010.4 |
| 20260507213458 | 53 | 299 | 8.7 | 20.9 | 0.00 | 0.06 | 0.04 | 79 | 1010.5 |
| 20260507212505 | 54 | 284 | 5.2 | 17.4 | 0.00 | 0.06 | 0.04 | 79 | 1010.7 |
| 20260507211509 | 56 | 290 | 7.0 | 15.6 | 0.00 | 0.06 | 0.04 | 77 | 1010.3 |
| 20260507210515 | 58 | 306 | 5.2 | 15.6 | 0.00 | 0.06 | 0.04 | 77 | 1010.0 |
| 20260507205501 | 59 | 327 | 11.3 | 16.5 | 0.00 | 0.06 | 0.04 | 76 | 1009.8 |
| 20260507204505 | 60 | 306 | 8.7 | 20.0 | 0.00 | 0.06 | 0.04 | 75 | 1010.5 |
| 20260507203512 | 60 | 306 | 8.7 | 21.7 | 0.00 | 0.06 | 0.04 | 74 | 1010.3 |
| 20260507202500 | 61 | 277 | 10.4 | 18.2 | 0.00 | 0.06 | 0.04 | 76 | 1010.2 |
| 20260507201510 | 60 | 296 | 6.1 | 13.9 | 0.00 | 0.06 | 0.04 | 79 | 1010.1 |
| 20260507200515 | 60 | 5 | 7.0 | 14.8 | 0.00 | 0.06 | 0.04 | 80 | 1009.9 |
| 20260507195511 | 60 | 286 | 6.1 | 12.2 | 0.00 | 0.06 | 0.04 | 82 | 1010.1 |
| 20260507194502 | 59 | 290 | 8.7 | 14.8 | 0.00 | 0.06 | 0.04 | 81 | 1010.3 |
| 20260507193508 | 59 | 344 | 7.0 | 13.9 | 0.00 | 0.06 | 0.04 | 82 | 1010.4 |
| 20260507192515 | 60 | 360 | 8.7 | 12.2 | 0.00 | 0.06 | 0.04 | 80 | 1010.4 |
| 20260507191500 | 61 | 16 | 7.0 | 16.5 | 0.00 | 0.06 | 0.04 | 80 | 1010.3 |
| 20260507190504 | 61 | 327 | 7.0 | 20.0 | 0.00 | 0.06 | 0.04 | 81 | 1010.3 |
| 20260507185510 | 60 | 355 | 7.0 | 15.6 | 0.00 | 0.06 | 0.04 | 82 | 1010.4 |
| 20260507184457 | 60 | 332 | 3.5 | 12.2 | 0.00 | 0.06 | 0.04 | 83 | 1010.7 |
| 20260507183508 | 59 | 23 | 4.3 | 12.2 | 0.00 | 0.06 | 0.04 | 85 | 1010.8 |
| 20260507182504 | 59 | 311 | 5.2 | 18.2 | 0.00 | 0.06 | 0.04 | 86 | 1010.8 |
| 20260507181510 | 57 | 325 | 9.6 | 16.5 | 0.00 | 0.06 | 0.04 | 86 | 1010.7 |
| 20260507180534 | 57 | 350 | 9.6 | 13.9 | 0.00 | 0.06 | 0.04 | 87 | 1010.9 |
| 20260507175503 | 56 | 14 | 8.7 | 13.0 | 0.00 | 0.06 | 0.04 | 89 | 1011.0 |
| 20260507174510 | 56 | 5 | 5.2 | 12.2 | 0.00 | 0.06 | 0.04 | 89 | 1011.0 |
| 20260507173533 | 56 | 355 | 6.1 | 12.2 | 0.00 | 0.06 | 0.04 | 91 | 1010.9 |
| 20260507172502 | 56 | 5 | 4.3 | 11.3 | 0.00 | 0.06 | 0.04 | 89 | 1011.0 |
| 20260507171511 | 55 | 5 | 3.5 | 10.4 | 0.00 | 0.06 | 0.04 | 90 | 1011.1 |
| 20260507170516 | 56 | 288 | 3.5 | 10.4 | 0.00 | 0.06 | 0.04 | 90 | 1011.1 |
| 20260507165523 | 55 | 350 | 5.2 | 11.3 | 0.00 | 0.06 | 0.04 | 92 | 1011.2 |
| 20260507164510 | 55 | 355 | 4.3 | 10.4 | 0.00 | 0.06 | 0.04 | 92 | 1011.3 |
| 20260507163501 | 55 | 344 | 5.2 | 12.2 | 0.00 | 0.06 | 0.04 | 92 | 1011.2 |
| 20260507162507 | 55 | 21 | 4.3 | 14.8 | 0.00 | 0.06 | 0.04 | 92 | 1011.1 |
| 20260507161536 | 55 | 15 | 8.7 | 13.9 | 0.00 | 0.06 | 0.04 | 92 | 1011.1 |
| 20260507160503 | 55 | 360 | 7.0 | 13.0 | 0.00 | 0.06 | 0.04 | 92 | 1011.3 |
| 20260507155510 | 55 | 14 | 7.8 | 12.2 | 0.00 | 0.06 | 0.04 | 92 | 1011.4 |
| 20260507154514 | 56 | 30 | 7.8 | 13.0 | 0.00 | 0.06 | 0.04 | 92 | 1011.4 |
| 20260507153525 | 56 | 329 | 4.3 | 13.9 | 0.00 | 0.06 | 0.04 | 93 | 1011.1 |
| 20260507152515 | 56 | 343 | 7.8 | 12.2 | 0.00 | 0.06 | 0.04 | 93 | 1011.2 |
| 20260507151504 | 56 | 9 | 8.7 | 13.0 | 0.00 | 0.06 | 0.04 | 93 | 1011.3 |
| 20260507150511 | 56 | 360 | 7.0 | 10.4 | 0.00 | 0.06 | 0.04 | 94 | 1011.4 |
| 20260507145500 | 56 | 350 | 3.5 | 8.7 | 0.00 | 0.06 | 0.04 | 94 | 1011.3 |
| 20260507144509 | 56 | 32 | 6.1 | 12.2 | 0.00 | 0.06 | 0.04 | 94 | 1011.3 |
| 20260507143535 | 56 | 22 | 6.1 | 11.3 | 0.00 | 0.06 | 0.04 | 94 | 1011.2 |
| 20260507142502 | 56 | 5 | 6.1 | 9.6 | 0.00 | 0.06 | 0.04 | 95 | 1011.2 |
| 20260507141508 | 56 | 5 | 4.3 | 10.4 | 0.00 | 0.06 | 0.04 | 95 | 1011.1 |
| 20260507140515 | 57 | 355 | 6.1 | 8.7 | 0.00 | 0.06 | 0.04 | 95 | 1011.1 |
| 20260507135507 | 57 | 360 | 6.1 | 8.7 | 0.00 | 0.06 | 0.04 | 95 | 1011.1 |
| 20260507134534 | 57 | 360 | 6.1 | 8.7 | 0.00 | 0.06 | 0.04 | 95 | 1011.1 |
| 20260507133502 | 58 | 360 | 4.3 | 7.8 | 0.00 | 0.06 | 0.04 | 95 | 1010.9 |
| 20260507132509 | 58 | 17 | 3.5 | 7.0 | 0.00 | 0.06 | 0.04 | 96 | 1010.9 |
| 20260507131514 | 58 | 39 | 5.2 | 7.8 | 0.00 | 0.06 | 0.04 | 96 | 1010.5 |
| 20260507130504 | 58 | 5 | 4.3 | 6.1 | 0.00 | 0.06 | 0.04 | 96 | 1011.2 |